Weather History for LTCA - March, 2013

Change the Weather History Date:

Wednesday, March 6, 2013

  Actual Average Record
Temperature  
Mean Temperature 32 °F -  
Max Temperature 44 °F 48 °F 62 °F (1998)
Min Temperature 19 °F 28 °F 18 °F (2015)
Degree Days  
Heating Degree Days 34    
Moisture  
Dew Point 6 °F    
Average Humidity 34    
Maximum Humidity 74    
Minimum Humidity 6    
Precipitation  
Precipitation 0.00 in - - ()
Sea Level Pressure  
Sea Level Pressure 30.22 in    
Wind  
Wind Speed 8 mph ()    
Max Wind Speed 14 mph    
Max Gust Speed -    
Visibility 8.1 miles    
Events      
Averages and records for this station are not official NWS values.
T = Trace of Precipitation, MM = Missing Value Source: Averaged Metar Reports

Daily Weather History Graph

Daily Weather History Graph

Search for Another Location

Airport or City:

Trip Planner

Search our weather history database for the weather conditions in past years. The results will help you decide how hot, cold, wet, or windy it might be!

Date:

Astronomy

Mar. 06, 2013 Rise Set
Actual Time 5:47 AM EET 5:20 PM EET
Civil Twilight 5:21 AM EET 5:47 PM EET
Nautical Twilight 4:50 AM EET 6:18 PM EET
Astronomical Twilight 4:19 AM EET 6:49 PM EET
Moon 1:34 AM EET (3/6) 11:42 AM EET (3/6)
Length of Visible Light 12h 26m
Length of Day
11h 33m
Waning Crescent, 33% of the Moon is Illuminated
Mar 6
Waning Crescent
Mar 11
New
Mar 19
First Quarter
Mar 27
Full
Apr 3
Last Quarter

Hourly Weather History & Observations

Time (EET) Temp. Windchill Dew Point Humidity Pressure Visibility Wind Dir Wind Speed Gust Speed Precip Events Conditions
12:50 AM 28.4 °F 19.1 °F 6.8 °F 40% 30.09 in - NW 10.4 mph - N/A   Clear
1:50 AM 30.2 °F 20.2 °F 6.8 °F 37% 30.12 in - NW 12.7 mph - N/A   Clear
2:00 AM 29 °F - 3 °F 19% 30.18 in 6 mi NW 12.7 mph - -  
2:50 AM 28.4 °F 19.1 °F 6.8 °F 40% 30.12 in - WSW 10.4 mph - N/A   Clear
3:50 AM 28.4 °F 19.7 °F 6.8 °F 40% 30.15 in - West 9.2 mph - N/A   Clear
4:50 AM 24.8 °F 15.3 °F 8.6 °F 50% 30.15 in - NNW 9.2 mph - N/A   Clear
5:50 AM 23.0 °F 15.8 °F 6.8 °F 50% 30.18 in - North 5.8 mph - N/A   Clear
6:50 AM 28.4 °F 23.3 °F 10.4 °F 47% 30.21 in - WSW 4.6 mph - N/A   Clear
7:50 AM 33.8 °F 28.6 °F 3.2 °F 28% 30.24 in - NNW 5.8 mph - N/A   Clear
8:00 AM 33 °F - 2 °F 14% 30.33 in 12 mi NNW 5.8 mph - -  
8:50 AM 35.6 °F 31.7 °F 1.4 °F 24% 30.24 in - North 4.6 mph - N/A   Clear
9:50 AM 37.4 °F 29.8 °F -0.4 °F 20% 30.24 in - North 11.5 mph - N/A   Clear
10:50 AM 39.2 °F 32.0 °F 3.2 °F 22% 30.24 in - NNW 11.5 mph - N/A   Clear
11:50 AM 41.0 °F 35.8 °F 6.8 °F 24% 30.21 in 6.2 mi North 8.1 mph - N/A   Partly Cloudy
12:50 PM 42.8 °F 36.6 °F 5.0 °F 21% 30.18 in 6.2 mi NNW 11.5 mph - N/A   Partly Cloudy
1:50 PM 44.6 °F 38.1 °F 3.2 °F 18% 30.18 in 6.2 mi NNW 13.8 mph - N/A   Partly Cloudy
2:00 PM 44 °F - -2 °F 6% 30.27 in 12 mi NNW 13.8 mph - -   Scattered Clouds
2:50 PM 42.8 °F 37.5 °F 5.0 °F 21% 30.18 in 6.2 mi NNE 9.2 mph - N/A   Partly Cloudy
3:50 PM 42.8 °F 36.2 °F 1.4 °F 18% 30.18 in 6.2 mi NNE 12.7 mph - N/A   Partly Cloudy
4:50 PM 41.0 °F 34.3 °F 5.0 °F 23% 30.21 in - ENE 11.5 mph - N/A   Clear
5:50 PM 35.6 °F 28.6 °F 5.0 °F 28% 30.24 in - ENE 9.2 mph - N/A   Clear
6:50 PM 32.0 °F 24.2 °F 12.2 °F 44% 30.24 in - ENE 9.2 mph - N/A   Clear
7:50 PM 30.2 °F 25.4 °F 14.0 °F 51% 30.24 in - South 4.6 mph - N/A   Clear
8:00 PM 30 °F - 12 °F 34% 30.38 in 12 mi South 4.6 mph - -  
8:50 PM 32.0 °F 27.5 °F 10.4 °F 41% 30.27 in - East 4.6 mph - N/A   Clear
9:50 PM 30.2 °F 26.7 °F 14.0 °F 51% 30.27 in - NNE 3.5 mph - N/A   Clear
10:50 PM 19.4 °F 11.5 °F 12.2 °F 74% 30.27 in - SW 5.8 mph - N/A   Clear
11:50 PM 21.2 °F 13.6 °F 12.2 °F 68% 30.27 in - SW 5.8 mph - N/A   Clear